• In Hungary
  • List of Countries
  • For 7 days
  • Water Temperature
  • Satellite Maps
  • Weather Map
  • News
  • Weather Widgets
  • user-avatar
    Login

    Hourly Weather Podgorzyce

    Today, 24 January, Wednesday

    Time Temperature Precipitation Wind Pressure Humidity
    00:00 0°C° 0 mm 4 mps 758 mmHg 90%
    01:00 0°C° 0 mm 4 mps 758 mmHg 88%
    02:00 +1°C° 0.1 mm 4 mps 757 mmHg 88%
    03:00 +1°C° 0.1 mm 4 mps 757 mmHg 87%
    04:00 +1°C° 0.1 mm 5 mps 756 mmHg 87%
    05:00 +2°C° 0.2 mm 5 mps 756 mmHg 88%
    06:00 +2°C° 0.2 mm 5 mps 756 mmHg 89%
    07:00 +2°C° 0.2 mm 5 mps 756 mmHg 90%
    08:00 +3°C° 0 mm 5 mps 756 mmHg 90%
    09:00 +3°C° 0 mm 5 mps 756 mmHg 89%
    10:00 +5°C° 0 mm 5 mps 757 mmHg 88%
    11:00 +6°C° 0 mm 5 mps 756 mmHg 86%
    12:00 +7°C° 0 mm 5 mps 756 mmHg 84%
    13:00 +8°C° 0 mm 4 mps 756 mmHg 82%
    14:00 +7°C° 0 mm 4 mps 756 mmHg 83%
    15:00 +7°C° 0 mm 4 mps 756 mmHg 85%
    16:00 +7°C° 0 mm 4 mps 756 mmHg 86%
    17:00 +6°C° 0 mm 4 mps 755 mmHg 87%
    18:00 +6°C° 0 mm 4 mps 755 mmHg 87%
    19:00 +6°C° 0 mm 5 mps 755 mmHg 88%
    20:00 +6°C° 0 mm 5 mps 755 mmHg 87%
    21:00 +6°C° 0 mm 5 mps 755 mmHg 86%
    22:00 +6°C° 0 mm 5 mps 754 mmHg 85%
    23:00 +6°C° 0 mm 5 mps 754 mmHg 82%

    Tomorrow, 25 January, Thursday

    Time Temperature Precipitation Wind Pressure Humidity
    00:00 +6°C° 0 mm 5 mps 754 mmHg 80%
    01:00 +5°C° 0 mm 5 mps 754 mmHg 77%
    02:00 +5°C° 0 mm 5 mps 753 mmHg 76%
    03:00 +5°C° 0 mm 5 mps 753 mmHg 75%
    04:00 +5°C° 0 mm 5 mps 753 mmHg 74%
    05:00 +5°C° 0 mm 5 mps 753 mmHg 74%
    06:00 +5°C° 0 mm 5 mps 753 mmHg 75%
    07:00 +5°C° 0 mm 5 mps 753 mmHg 76%
    08:00 +5°C° 0 mm 5 mps 753 mmHg 75%
    09:00 +6°C° 0 mm 5 mps 753 mmHg 74%
    10:00 +6°C° 0 mm 5 mps 753 mmHg 72%
    11:00 +7°C° 0 mm 4 mps 753 mmHg 71%
    12:00 +7°C° 0 mm 4 mps 752 mmHg 70%
    13:00 +8°C° 0 mm 4 mps 752 mmHg 68%
    14:00 +7°C° 0 mm 4 mps 752 mmHg 70%
    15:00 +8°C° 0 mm 3 mps 752 mmHg 72%
    16:00 +7°C° 0 mm 3 mps 752 mmHg 73%
    17:00 +7°C° 0 mm 3 mps 752 mmHg 74%
    18:00 +5°C° 0 mm 3 mps 752 mmHg 76%
    19:00 +5°C° 0 mm 3 mps 752 mmHg 77%
    20:00 +4°C° 0 mm 3 mps 752 mmHg 77%
    21:00 +4°C° 0 mm 3 mps 752 mmHg 77%
    22:00 +3°C° 0 mm 3 mps 752 mmHg 78%
    23:00 +3°C° 0 mm 3 mps 752 mmHg 78%

    Day after tomorrow, 26 January, Friday

    Time Temperature Precipitation Wind Pressure Humidity
    00:00 +3°C° 0 mm 3 mps 751 mmHg 79%
    01:00 +2°C° 0 mm 3 mps 751 mmHg 80%
    02:00 +2°C° 0 mm 3 mps 751 mmHg 80%
    03:00 +3°C° 0 mm 2 mps 751 mmHg 80%
    04:00 +3°C° 0 mm 2 mps 750 mmHg 81%
    05:00 +3°C° 0 mm 2 mps 750 mmHg 81%
    06:00 +3°C° 0 mm 2 mps 751 mmHg 81%
    07:00 +3°C° 0 mm 2 mps 751 mmHg 82%
    08:00 +4°C° 0 mm 2 mps 751 mmHg 80%
    09:00 +4°C° 0 mm 2 mps 751 mmHg 78%
    10:00 +4°C° 0 mm 3 mps 751 mmHg 76%
    11:00 +5°C° 0 mm 3 mps 752 mmHg 76%
    12:00 +5°C° 0 mm 3 mps 752 mmHg 75%
    13:00 +7°C° 0 mm 3 mps 752 mmHg 74%
    14:00 +7°C° 0.2 mm 2 mps 752 mmHg 79%
    15:00 +6°C° 0.2 mm 2 mps 753 mmHg 83%
    16:00 +7°C° 0.2 mm 1 mps 753 mmHg 88%
    17:00 +6°C° 0.5 mm 1 mps 753 mmHg 90%
    18:00 +6°C° 0.5 mm 1 mps 754 mmHg 93%
    19:00 +6°C° 0.5 mm 1 mps 754 mmHg 95%
    20:00 +6°C° 0.3 mm 1 mps 755 mmHg 96%
    21:00 +6°C° 0.3 mm 1 mps 755 mmHg 96%
    22:00 +5°C° 0.3 mm 1 mps 756 mmHg 97%
    23:00 +5°C° 0.4 mm 1 mps 756 mmHg 97%

    27 January, Saturday

    Time Temperature Precipitation Wind Pressure Humidity
    00:00 +5°C° 0.4 mm 1 mps 757 mmHg 97%
    01:00 +4°C° 0.4 mm 2 mps 757 mmHg 97%
    02:00 +4°C° 0.2 mm 2 mps 757 mmHg 97%
    03:00 +4°C° 0.2 mm 2 mps 758 mmHg 97%
    04:00 +4°C° 0.2 mm 2 mps 758 mmHg 97%
    05:00 +4°C° 0 mm 1 mps 759 mmHg 97%
    06:00 +4°C° 0 mm 1 mps 759 mmHg 97%
    07:00 +4°C° 0 mm 1 mps 760 mmHg 96%
    08:00 +4°C° 0 mm 1 mps 760 mmHg 95%
    09:00 +4°C° 0 mm 1 mps 761 mmHg 93%
    10:00 +5°C° 0 mm 1 mps 762 mmHg 91%
    11:00 +6°C° 0 mm 1 mps 762 mmHg 88%
    12:00 +6°C° 0 mm 1 mps 763 mmHg 84%
    13:00 +7°C° 0 mm 1 mps 763 mmHg 81%
    14:00 +7°C° 0 mm 1 mps 763 mmHg 83%
    15:00 +6°C° 0 mm 1 mps 764 mmHg 85%
    16:00 +6°C° 0 mm 1 mps 764 mmHg 87%
    17:00 +5°C° 0 mm 1 mps 765 mmHg 89%
    18:00 +5°C° 0 mm 1 mps 765 mmHg 91%
    19:00 +4°C° 0 mm 1 mps 766 mmHg 93%
    20:00 +4°C° 0 mm 1 mps 766 mmHg 93%
    21:00 +3°C° 0 mm 1 mps 766 mmHg 94%
    22:00 +3°C° 0 mm 1 mps 767 mmHg 94%
    23:00 +3°C° 0 mm 1 mps 767 mmHg 94%

    28 January, Sunday

    Time Temperature Precipitation Wind Pressure Humidity
    00:00 +2°C° 0 mm 2 mps 767 mmHg 95%
    01:00 +1°C° 0 mm 2 mps 767 mmHg 95%
    02:00 +1°C° 0 mm 2 mps 767 mmHg 95%
    03:00 +1°C° 0 mm 2 mps 767 mmHg 94%
    04:00 +1°C° 0 mm 2 mps 767 mmHg 94%
    05:00 +1°C° 0 mm 2 mps 767 mmHg 94%
    06:00 +1°C° 0 mm 2 mps 767 mmHg 93%
    07:00 +1°C° 0 mm 2 mps 767 mmHg 92%
    08:00 +1°C° 0 mm 3 mps 767 mmHg 88%
    09:00 +2°C° 0 mm 3 mps 767 mmHg 83%
    10:00 +3°C° 0 mm 4 mps 767 mmHg 79%
    11:00 +4°C° 0 mm 4 mps 767 mmHg 75%
    12:00 +5°C° 0 mm 4 mps 766 mmHg 71%
    13:00 +6°C° 0 mm 5 mps 766 mmHg 66%
    14:00 +6°C° 0 mm 4 mps 766 mmHg 67%
    15:00 +5°C° 0 mm 4 mps 765 mmHg 68%
    16:00 +5°C° 0 mm 4 mps 765 mmHg 69%
    17:00 +5°C° 0 mm 4 mps 765 mmHg 71%
    18:00 +5°C° 0 mm 4 mps 765 mmHg 72%
    19:00 +3°C° 0 mm 5 mps 765 mmHg 73%
    20:00 +3°C° 0 mm 5 mps 765 mmHg 74%
    21:00 +3°C° 0 mm 5 mps 765 mmHg 75%
    22:00 +5°C° 0 mm 5 mps 765 mmHg 76%
    23:00 +5°C° 0 mm 5 mps 765 mmHg 78%

    29 January, Monday

    Time Temperature Precipitation Wind Pressure Humidity
    00:00 +5°C° 0 mm 5 mps 765 mmHg 80%
    01:00 +5°C° 0 mm 5 mps 764 mmHg 82%
    02:00 +3°C° 0 mm 5 mps 764 mmHg 84%
    03:00 +3°C° 0 mm 5 mps 764 mmHg 85%
    04:00 +3°C° 0 mm 5 mps 764 mmHg 87%
    05:00 +3°C° 0 mm 5 mps 763 mmHg 87%
    06:00 +5°C° 0 mm 5 mps 763 mmHg 87%
    07:00 +5°C° 0 mm 5 mps 763 mmHg 88%
    08:00 +5°C° 0 mm 5 mps 763 mmHg 86%
    09:00 +6°C° 0 mm 5 mps 763 mmHg 85%
    10:00 +5°C° 0 mm 6 mps 763 mmHg 84%
    11:00 +7°C° 0 mm 6 mps 762 mmHg 83%
    12:00 +7°C° 0 mm 6 mps 762 mmHg 81%
    13:00 +7°C° 0 mm 6 mps 761 mmHg 80%
    14:00 +7°C° 0 mm 6 mps 761 mmHg 81%
    15:00 +7°C° 0 mm 6 mps 761 mmHg 81%
    16:00 +7°C° 0 mm 6 mps 761 mmHg 82%
    17:00 +7°C° 0.1 mm 6 mps 761 mmHg 83%
    18:00 +7°C° 0.1 mm 6 mps 761 mmHg 83%
    19:00 +8°C° 0.1 mm 6 mps 761 mmHg 84%
    20:00 +7°C° 0 mm 6 mps 761 mmHg 84%
    21:00 +7°C° 0 mm 6 mps 761 mmHg 85%
    22:00 +7°C° 0 mm 6 mps 760 mmHg 85%
    23:00 +7°C° 0 mm 6 mps 760 mmHg 85%
    Show more